This demonstration page uses our WeatherBlox Daily Observations layout. Learn more.

41.55636, -103.73856

Hourly Observations for November 14, 2019

Temp ( °F °C ) Dew Point ( °F °C ) Humidity (%) Winds ( mph kmh ) Pressure ( in mb ) Visibility ( mi km ) Precip ( " mm )
12:58 am 00:58 Clear 36 2.4 27 -2.8 69 69 NNE 8 13 30.16 1021 10 16.0934 0 0
1:58 am 01:58 Clear 36 2.3 28 -2 74 74 N 5 7 30.19 1022 10 16.0934 0 0
2:58 am 02:58 Partly Cloudy 33 0.8 28 -2.5 79 79 Calm 30.2 1023 10 16.0934 0 0
3:58 am 03:58 Mostly Cloudy 33 0.5 28 -2.2 82 82 Calm 30.24 1024 10 16.0934 0 0
4:58 am 04:58 Cloudy 33 0.5 29 -1.5 87 87 WSW 5 7 30.27 1025 10 16.0934 0 0
5:58 am 05:58 Cloudy with Light Rain 33 0.7 30 -0.9 89 89 SW 5 7 30.28 1026 10 16.0934 0 0
6:58 am 06:58 Mostly Cloudy 31 -0.4 30 -1.3 94 94 SW 7 11 30.28 1026 10 16.0934 0 0
7:58 am 07:58 Mostly Cloudy 31 -0.4 30 -1.1 95 95 SW 5 7 30.29 1026 10 16.0934 0 0
8:58 am 08:58 Mostly Clear 32 -0.1 30 -1 94 94 Calm 30.3 1026 10 16.0934 0 0
9:58 am 09:58 Clear 28 -2 27 -2.6 96 96 SW 7 11 30.32 1027 10 16.0934 0 0
10:58 am 10:58 Clear 28 -2.1 27 -2.7 96 96 W 3 6 30.34 1027 10 16.0934 0 0
11:58 am 11:58 Clear 25 -3.7 24 -4.4 95 95 W 5 7 30.37 1029 10 16.0934 0 0
12:58 pm 12:58 Clear 28 -2.4 25 -3.9 90 90 SW 5 7 30.37 1029 10 16.0934 0 0
1:58 pm 13:58 Sunny 26 -3.4 24 -4.2 94 94 Calm 30.39 1029 10 16.0934 0 0
2:58 pm 14:58 Sunny 29 -1.7 27 -2.8 92 92 WNW 3 6 30.41 1030 10 16.0934 0 0
3:58 pm 15:58 Sunny 35 1.4 32 -0.2 89 89 W 3 6 30.39 1029 10 16.0934 0 0
4:58 pm 16:58 Sunny 40 4.7 34 1 77 77 WSW 13 20 30.37 1028 10 16.0934 0 0
5:58 pm 17:58 Sunny 46 8 34 1.3 63 63 SW 14 22 30.35 1028 10 16.0934 0 0
6:58 pm 18:58 Sunny 48 8.8 31 -0.3 53 53 SW 10 17 30.32 1027 10 16.0934 0 0
7:58 pm 19:58 Sunny 50 10.1 28 -2.3 42 42 SSW 12 19 30.27 1025 10 16.0934 0 0
8:58 pm 20:58 Sunny 51 10.6 25 -3.9 36 36 SW 10 17 30.26 1025 10 16.0934 0 0
9:58 pm 21:58 Sunny 51 10.7 25 -3.8 36 36 SW 10 17 30.25 1024 10 16.0934 0 0
10:58 pm 22:58 Sunny 49 9.4 27 -2.9 42 42 SSW 10 17 30.25 1025 10 16.0934 0 0
11:58 pm 23:58 Clear 40 4.4 26 -3.5 57 57 SSW 7 11 30.3 1026 10 16.0934 0 0

Powered by AerisWeather